TITAN 3C TRANSTAGE DEB, 26524

Orbit data source: Space-Track

TITAN 3C TRANSTAGE DEB, 26524 is space debris in HEO originally from a launch on Tue, 21 Dec 1965 UTC launched from the Air Force Eastern Test Range (AFETR). Debris objects in space refer to the collection of defunct objects orbiting the Earth. Examples of debris include non-operational satellites, rocket bodies, and fragments generated from explosions, collisions, or faulty payload assembly.

Loading next visibility...
Identifier
26524, 1965-108AK
Orbit
HEO
Country
Flag of USUS
Related business
Manufacturer
Unknown
Mission
Spacecraft
Bus & Motor
Unknown
Mass
Unknown
Launch date (UTC)
1965-12-21 (61 years ago)
Launch vehicle
Unknown
Launch site
Air Force Eastern Test Range (AFETR)
Object type
Payload
Rocket body
Debris
Shape & HBR
Unknown shape, 0.1 m
Radar Cross Section
Medium (>0.1 m² and <1 m²)

Expand to show TLE details & history
Last TLE update: 2 months ago

TLE from 2 months ago
0 TITAN 3C TRANSTAGE DEB
1 26524U 65108AK  26200.07385361  .00000225  00000-0  48929-2 0  9995
2 26524  26.8269  75.6044 6682078 216.5490 350.4403  2.81769591 44751
Epoch: 2026-07-19T01:46Z
TLE epoch observation values (Epoch: 2026-07-19T01:46:20.951Z)
Latitude
8.97142°
Longitude
-85.88939°
Altitude
2,178.447 km
Speed
8.622 km/s
True Right ascension
15h 50m 18s
True Declination
8° 55' 39"
Sunlit
Object was in daylight at epoch
Visualization orbit readout
Latitude
Unknown
Longitude
Unknown
Altitude
Unknown
Speed
Unknown
Apparent Right ascension
Unknown
Apparent Declination
Unknown
Sunlit
N/A
Visualization observer readout
Local Sidereal Time
16:58:26
Azimuth
Unknown
Elevation
Unknown
Doppler factor
Unknown
Orbital elements
Apogee altitude
28,950.601 km
Perigee altitude
648.446 km
Semi-major axis
21,177.66 km
Eccentricity
0.66821
Inclination
26.8269°
RAAN
75.6044°
Arg. of periapsis
216.549°
True anomaly
303.67935°
Mean anomaly
350.4403°
Eccentric anomaly
333.14608°
Mean motion
0.70425 °/min
Orbital period
511.18 mins
BSTAR
0.0048929
Loading maneuver chart data...
Computing Atmospheric mass density...

Documentation

Showing up to 5 results
|